{"data":{"norad_id":49427,"epoch":"2026-09-19T23:33:53.956800Z","epoch_age_seconds":86074,"freshness":"FRESH","line1":"1 49427U 21104V   26262.98187450  .00002255  00000+0  84385-4 0  9999","line2":"2 49427  53.1600  63.2331 0001200  78.8189 281.2947 15.31703667268159","mean_motion":15.31703667,"eccentricity":0.00012,"inclination_deg":53.16,"raan_deg":63.2331,"arg_perigee_deg":78.8189,"mean_anomaly_deg":281.2947,"bstar":8.4385e-5,"rev_number":26815,"period_min":94.012962887292,"perigee_km":469.90720018358,"apogee_km":471.55092803896,"semimajor_km":6848.8660641113,"source":"CELESTRAK","updated_at":"2026-09-20T09:00:39.258674Z"}}